Probability
0 0 0 0 0 0 0 0 0 0 0 0 0 0 1 3 4 4 4 4 5 5 5 6 7 7 5 4 3 4 2 1 0 0 0 0 0 0 0 0 0 0 0 0
0 0 0 0 0 0 0 0 0 0 0 0 0 0 0 2 4 3 3 3 4 5 5 4 5 5 3 2 3 3 2 1 0 0 0 0 0 0 0 0 0 0 0 0
0 0 0 0 0 0 0 0 0 0 0 0 0 0 0 1 3 3 3 2 2 3 3 2 2 2 1 1 2 1 1 0 0 0 0 0 0 0 0 0 0 0 0 0
0 0 0 0 0 0 0 0 0 0 0 0 0 0 0 2 3 3 3 2 1 2 2 1 0 0 0 0 0 0 0 0 0 0 0 0 0 0 0 0 0 0 0 0
0 0 0 0 0 0 0 0 0 0 0 0 0 0 0 1 2 2 3 2 2 1 1 0 0 0 0 0 0 0 0 0 0 0 0 0 0 0 0 0 0 0 0 0
0 0 0 0 0 0 0 0 0 0 0 0 0 0 0 0 1 1 1 2 3 2 1 0 0 0 0 0 0 0 0 0 0 0 0 0 0 0 0 0 0 0 0 0
0 0 0 0 0 0 0 0 0 0 0 0 0 0 0 0 0 0 1 2 2 2 1 0 0 0 0 0 0 0 0 0 0 0 0 0 0 0 0 0 0 0 0 0
0 0 0 0 0 0 0 0 0 0 0 0 0 0 0 0 0 0 0 1 1 1 0 0 0 0 1 1 0 0 0 0 0 0 0 0 0 0 0 0 0 0 0 0
0 0 0 0 0 0 0 0 0 0 0 0 0 0 0 0 0 0 0 0 0 0 0 0 0 1 2 2 1 0 0 0 0 0 0 0 0 0 0 0 0 0 0 0
0 0 0 0 0 0 0 0 0 0 0 0 0 0 0 0 0 0 0 0 0 0 0 0 1 2 2 2 1 0 0 1 1 0 0 0 0 0 0 0 0 0 0 0
0 0 0 0 0 0 0 0 0 0 0 0 0 0 0 0 0 0 0 0 0 0 0 0 1 1 1 1 1 1 1 2 1 0 0 0 0 0 0 0 0 0 0 0
0 0 0 0 0 0 0 0 0 0 0 0 0 0 0 0 0 0 0 0 0 0 0 0 0 0 0 1 2 2 2 2 1 0 0 0 0 0 0 0 0 0 0 0
0 0 0 0 0 0 0 0 0 0 0 0 0 0 0 0 0 0 0 0 0 0 0 0 0 0 0 1 2 3 3 1 0 0 0 0 0 0 0 0 0 0 0 0
0 0 0 0 0 0 0 0 0 0 0 0 0 0 0 0 0 0 0 0 0 0 0 0 0 0 0 0 1 2 2 1 0 0 0 0 0 0 0 0 0 0 0 0
0 0 0 0 0 0 0 0 0 0 0 0 0 0 0 0 0 0 0 0 0 0 0 0 0 0 0 0 0 1 1 0 0 0 0 0 0 0 0 0 0 0 0 0
0 0 0 0 0 0 0 0 0 0 0 0 0 0 0 0 0 0 0 0 0 0 0 0 0 0 0 0 0 0 0 0 0 0 0 0 0 0 0 0 0 0 0 0
0 0 0 0 0 0 0 0 0 0 0 0 0 0 0 0 0 0 0 0 0 0 0 0 0 0 0 0 0 0 0 0 0 0 0 0 0 0 0 0 0 0 0 0
0 0 0 0 0 0 0 0 0 0 0 0 1 1 0 0 0 0 0 0 0 0 0 0 0 0 0 0 0 0 0 0 0 0 0 0 0 0 0 0 0 0 0 0
0 0 0 0 0 0 0 0 0 0 1 1 1 2 1 0 0 0 0 0 0 0 0 0 0 0 0 0 0 0 0 0 0 0 0 0 0 0 0 0 0 0 0 0
0 0 0 0 0 0 0 0 0 0 2 2 1 2 1 0 0 0 0 1 0 0 0 0 0 0 0 0 0 0 0 0 0 0 0 0 0 0 0 0 0 0 0 0
0 0 0 0 0 0 0 0 0 0 1 1 1 1 1 0 0 0 0 0 0 0 0 0 0 0 0 0 0 0 0 0 0 0 0 0 0 0 0 0 0 0 0 0
0 0 0 0 0 0 0 0 0 0 0 0 0 0 0 0 0 0 0 0 0 1 1 0 0 0 0 0 0 0 0 0 0 0 0 0 0 0 0 0 0 0 0 0
0 0 0 0 0 0 0 0 0 0 0 0 0 0 0 0 0 0 0 0 0 1 1 0 0 0 0 0 0 0 0 0 0 0 0 0 0 0 0 0 0 0 0 0
0 0 0 0 0 0 0 0 0 0 0 0 0 0 0 0 0 0 0 0 0 1 1 0 0 0 0 0 0 0 0 0 0 0 0 0 0 0 0 0 0 0 0 0
0 0 0 0 0 0 0 0 0 0 0 0 0 0 0 0 0 0 0 0 0 0 0 0 0 0 0 0 0 0 0 0 0 0 0 0 0 0 0 0 0 0 0 0
0 0 0 0 0 0 0 0 0 0 0 0 0 0 0 0 0 0 0 0 0 0 0 0 0 0 0 0 0 0 0 0 0 0 0 0 0 0 0 0 0 0 0 0
Wind_Speed
3 0 6 11 9 10 6 3 2 1 1 4 4 4 6 5 5 6 6 7 7 7 6 7 8 9 8 7 7 7 6 5 4 3 3 3 2 2 2 2 3 4 3 4
3 7 15 13 8 5 4 3 2 0 2 3 3 3 5 6 7 7 7 8 8 6 7 9 8 8 8 8 7 7 7 6 5 3 3 2 2 2 2 2 2 3 3 4
7 12 11 5 2 3 2 4 4 4 2 3 2 2 2 3 3 4 6 7 8 11 12 11 10 9 8 8 8 8 7 6 5 4 3 3 3 3 2 1 1 2 3 3
7 8 5 3 1 3 1 4 6 6 5 1 1 2 4 3 3 6 7 8 9 10 10 10 11 10 10 9 8 7 7 6 5 5 5 4 3 2 1 2 1 1 2 2
6 5 3 2 0 3 4 3 4 4 5 3 2 0 6 2 5 8 9 9 10 11 12 13 13 13 11 10 9 7 7 6 6 6 6 6 4 3 2 1 1 0 1 1
6 4 2 2 1 4 7 6 5 5 5 4 3 0 6 5 8 8 9 10 11 11 12 12 12 10 9 9 9 8 8 7 6 6 6 7 6 5 3 2 1 1 1 1
6 6 4 1 1 3 4 5 5 6 6 3 4 1 8 8 6 10 11 11 11 11 12 11 11 11 10 10 10 9 9 7 7 7 6 7 7 6 4 3 2 1 0 0
2 7 5 2 4 4 3 7 6 3 3 4 3 3 9 7 5 7 9 10 10 11 12 13 13 12 12 12 11 10 10 8 8 7 7 6 6 4 3 4 3 3 2 2
5 7 6 3 1 4 2 1 5 7 3 0 4 6 9 2 2 5 7 9 11 13 13 13 12 12 12 12 12 12 11 9 8 8 7 6 6 5 5 4 3 3 3 3
6 4 5 2 4 3 3 4 6 5 4 2 4 5 6 4 5 5 7 10 12 12 12 12 12 13 12 11 10 10 11 10 8 8 7 6 6 6 5 4 4 4 3 3
3 3 3 3 2 1 1 2 5 4 5 6 3 8 9 11 10 9 10 11 13 13 14 13 12 11 11 10 10 10 10 8 8 8 7 7 6 6 5 5 5 4 4 4
1 5 0 3 3 1 2 3 6 5 3 5 4 9 8 12 12 11 12 12 12 13 13 12 12 11 10 11 11 11 10 10 9 8 7 7 7 6 6 5 5 5 5 5
2 6 3 6 7 4 1 2 4 5 4 4 5 9 5 6 8 10 10 10 10 10 10 10 11 12 12 12 12 11 11 10 9 8 8 7 7 6 6 6 6 5 5 5
4 4 6 6 8 5 4 3 3 5 4 4 7 8 5 5 7 8 8 8 9 10 11 11 11 11 12 12 12 11 10 10 9 8 8 8 8 8 7 7 6 6 6 6
5 2 2 4 4 3 4 5 4 4 6 7 7 6 7 8 8 7 6 6 8 10 11 13 13 11 10 10 10 10 10 9 9 9 9 9 8 7 7 6 6 6 6 7
3 2 1 4 5 3 5 6 5 5 3 4 3 4 5 2 1 2 4 6 8 10 13 13 13 12 13 13 12 11 10 10 9 10 10 8 7 7 7 7 7 6 6 6
2 3 2 4 5 2 4 5 2 2 3 0 2 4 1 2 2 4 4 5 7 9 11 13 14 15 15 14 14 13 12 9 9 10 9 8 8 8 8 8 7 7 7 6
5 4 3 2 2 3 6 3 4 7 6 6 4 4 3 1 1 1 2 4 6 7 9 10 11 11 11 11 11 11 10 10 10 10 9 9 9 9 8 7 7 7 6 6
5 6 3 2 2 5 3 3 1 4 3 4 3 5 5 4 5 5 5 1 4 6 7 8 10 9 9 10 10 9 9 9 9 10 10 10 9 9 8 8 8 7 6 6
4 5 5 3 2 4 5 5 2 6 2 4 2 4 5 6 4 4 8 6 3 1 2 3 4 5 6 8 8 9 9 9 11 11 10 9 9 9 9 9 8 6 6 7
2 3 3 3 3 6 3 4 3 3 5 3 1 2 4 2 1 4 7 6 5 3 3 1 2 3 5 5 7 9 9 11 11 8 7 8 8 9 9 8 6 6 6 6
5 3 2 3 2 6 2 1 3 5 4 3 2 3 4 2 2 4 6 7 8 8 8 5 3 1 1 2 6 7 8 8 5 6 7 7 7 7 6 6 6 6 6 6
4 7 6 6 7 5 3 4 3 3 3 3 3 2 4 5 5 5 6 7 8 9 9 7 5 5 5 4 1 3 4 2 3 4 5 5 5 5 5 6 6 5 5 6
3 3 4 2 4 4 3 2 2 2 2 3 4 5 7 7 6 5 6 7 8 8 8 7 8 8 6 6 4 2 3 2 1 2 2 2 3 4 4 4 5 5 5 6
5 4 4 2 2 1 4 3 4 4 3 5 6 7 7 8 8 7 6 7 7 7 7 7 7 7 7 6 7 6 5 4 3 2 2 2 3 3 4 4 5 7 7 8
4 6 8 7 9 6 5 4 5 6 6 7 9 9 8 8 8 7 6 5 5 6 6 7 8 8 7 7 7 7 5 4 4 3 3 3 3 3 4 5 7 10 12 15
Wind_Direction
286 18 257 250 223 220 222 180 206 230 130 91 130 175 194 196 189 189 193 184 185 188 188 163 155 153 146 145 141 141 138 143 131 115 112 112 119 126 141 159 148 141 126 104
330 271 256 257 251 225 179 149 179 200 147 127 167 198 182 193 195 194 193 191 188 186 169 167 167 164 162 160 156 151 152 151 143 138 143 147 141 134 143 148 141 153 140 132
227 254 273 280 196 135 136 164 183 175 131 67 82 339 215 214 197 196 195 194 188 181 175 174 169 170 168 168 170 167 165 157 153 145 119 88 70 58 60 90 151 190 168 156
257 269 295 322 103 126 188 200 159 145 123 1 59 292 273 213 213 204 203 198 194 184 177 177 175 179 182 180 177 171 167 162 157 142 130 129 129 133 166 175 194 224 201 185
271 298 327 345 236 131 169 135 95 108 118 73 12 75 286 182 216 217 207 201 194 188 181 182 183 186 187 181 178 173 164 164 161 149 140 131 133 151 156 129 138 272 306 242
265 288 237 213 265 126 129 86 57 51 71 50 293 187 277 217 207 204 203 199 193 188 186 187 188 182 182 180 176 170 164 168 164 154 147 146 151 157 150 144 140 334 344 29
313 307 287 203 63 81 108 89 27 7 20 281 281 258 256 248 218 191 191 192 191 188 187 187 186 184 184 181 178 173 169 171 168 158 156 159 161 161 165 176 170 158 128 125
280 285 271 234 176 176 171 136 155 191 206 274 308 265 265 275 221 185 181 183 188 191 191 192 192 188 186 184 180 175 173 173 169 163 167 166 162 155 158 163 164 171 183 189
201 258 276 256 169 127 110 157 161 125 106 356 293 293 299 301 145 164 174 183 193 195 194 194 192 189 187 184 181 178 174 172 171 171 169 170 168 165 172 177 172 174 181 181
176 231 289 322 53 28 139 144 86 100 142 219 279 264 246 235 206 193 191 196 201 197 196 194 190 188 186 182 178 172 171 170 172 171 174 175 178 180 180 178 182 188 199 191
157 169 322 24 63 260 84 89 104 118 157 158 221 258 224 210 204 200 204 202 199 197 196 191 188 183 176 170 168 168 169 165 168 172 172 168 178 181 179 184 197 198 201 200
145 117 51 292 281 258 162 164 136 144 216 171 180 260 244 203 202 200 204 203 201 197 193 186 179 171 167 169 171 172 171 171 175 173 171 175 180 179 181 192 202 200 203 209
91 104 69 347 335 339 321 190 157 140 137 166 175 257 272 210 207 211 209 206 201 191 182 173 171 171 172 173 174 175 175 178 178 172 173 178 184 187 195 203 207 205 205 213
113 115 153 195 231 240 255 252 184 131 155 211 219 244 269 230 220 222 214 206 195 181 175 170 173 176 177 176 176 177 181 181 178 174 176 185 194 197 201 204 205 206 206 211
102 134 207 226 236 202 240 251 228 208 197 200 242 248 238 222 215 216 199 185 173 172 173 174 176 179 178 178 181 181 184 184 180 176 183 196 200 199 199 202 206 209 211 216
94 136 351 314 300 296 279 267 252 245 249 242 251 266 262 237 134 141 160 162 169 177 179 179 178 178 181 184 185 185 188 186 178 182 192 194 193 196 200 204 208 211 217 221
120 122 97 280 298 348 291 268 234 91 21 50 192 252 333 60 129 170 177 166 173 182 183 183 184 185 187 188 185 187 190 182 180 187 191 190 191 198 204 206 206 212 217 217
141 130 145 217 11 251 251 297 102 97 46 21 37 14 18 134 200 252 167 174 185 189 186 190 192 195 195 190 187 186 180 179 185 190 193 193 193 201 205 206 211 215 211 211
143 137 131 140 202 263 282 319 343 131 66 353 23 18 10 14 42 10 351 324 188 188 187 191 194 192 191 192 189 178 183 185 189 196 199 199 196 200 204 210 216 213 209 217
74 111 127 140 169 235 251 298 310 107 65 311 31 37 22 35 50 318 329 338 341 299 213 192 183 176 191 200 179 175 188 190 201 204 203 200 198 201 207 213 213 210 208 219
29 58 130 167 198 250 258 307 19 128 213 235 148 85 61 59 183 282 324 343 354 15 22 61 129 169 206 191 168 185 193 207 212 202 198 201 203 208 211 212 211 210 214 222
170 152 183 151 186 244 270 359 163 198 192 193 175 121 104 90 27 18 22 20 23 29 27 31 48 12 332 152 163 184 209 220 202 189 198 209 212 214 212 212 220 216 215 226
188 184 175 178 208 233 203 200 208 152 170 188 170 149 109 93 68 51 42 32 31 32 29 26 39 33 24 26 115 202 241 213 188 200 214 220 218 217 212 209 219 223 221 228
246 143 120 159 244 242 231 208 176 169 165 136 121 110 107 108 102 80 60 45 36 31 28 28 41 40 26 20 31 21 14 49 122 209 234 238 233 238 234 226 222 226 232 236
224 144 127 165 229 260 275 219 176 151 119 98 86 89 102 100 86 75 60 46 38 34 31 36 40 37 25 25 28 23 35 52 44 8 331 307 280 264 260 254 244 241 240 236
216 174 168 196 195 178 206 192 147 123 116 110 100 87 79 87 85 74 62 52 47 41 37 40 40 38 28 29 29 21 26 46 46 12 342 317 300 289 280 277 280 263 255 258